This is the latest recevied weather packets stored in our database for station/object K8RLH. If no packets are shown the sender has not sent any weather packets the latest 10 day(s).
| Time | Temp. | Humidity | Pressure | Rain* | Wind** | Luminosity | Snow |
|---|---|---|---|---|---|---|---|
| 1777617329 | 15.56° C | 54% | 1014.6 hPa | 0 mm | - | 0 W/m² | - |
| 1777617028 | 16.11° C | 53% | 1014.7 hPa | 0 mm | - | 0 W/m² | - |
| 1777616728 | 16.11° C | 55% | 1014.6 hPa | 0 mm | - | 0 W/m² | - |
| 1777616428 | 16.11° C | 53% | 1014.6 hPa | 0 mm | - | 0 W/m² | - |
| 1777616125 | 16.11° C | 53% | 1014.6 hPa | 0 mm | - | 0 W/m² | - |
| 1777615822 | 16.11° C | 52% | 1014.4 hPa | 0 mm | - | 0 W/m² | - |
| 1777615519 | 16.11° C | 53% | 1014.5 hPa | 0 mm | - | 0 W/m² | - |
| 1777615215 | 16.11° C | 52% | 1014.5 hPa | 0 mm | - | 0 W/m² | - |
| 1777614909 | 16.11° C | 52% | 1014.5 hPa | 0 mm | - | 0 W/m² | - |
| 1777614606 | 16.11° C | 53% | 1014.6 hPa | 0 mm | - | 0 W/m² | - |
| 1777614301 | 16.11° C | 53% | 1014.7 hPa | 0 mm | - | 0 W/m² | - |
| 1777613996 | 16.67° C | 52% | 1014.7 hPa | 0 mm | - | 0 W/m² | - |
| 1777613693 | 16.67° C | 51% | 1014.7 hPa | 0 mm | - | 0 W/m² | - |
| 1777613390 | 16.67° C | 51% | 1014.8 hPa | 0 mm | - | 0 W/m² | - |
| 1777613086 | 16.67° C | 51% | 1014.8 hPa | 0 mm | - | 0 W/m² | - |
| 1777612783 | 16.67° C | 51% | 1014.7 hPa | 0 mm | - | 0 W/m² | - |
| 1777612478 | 16.67° C | 51% | 1014.7 hPa | 0 mm | - | 0 W/m² | - |
| 1777612175 | 16.67° C | 53% | 1014.6 hPa | 0 mm | - | 0 W/m² | - |
| 1777611870 | 16.67° C | 51% | 1014.4 hPa | 0 mm | - | 0 W/m² | - |
| 1777611566 | 16.67° C | 53% | 1014.5 hPa | 0 mm | - | 0 W/m² | - |
| 1777611263 | 16.67° C | 50% | 1014.4 hPa | 0 mm | - | 0 W/m² | - |
| 1777610960 | 16.67° C | 51% | 1014.4 hPa | 0 mm | - | 0 W/m² | - |
| 1777610655 | 16.67° C | 51% | 1014.5 hPa | 0 mm | - | 0 W/m² | - |
| 1777610355 | 16.67° C | 50% | 1014.6 hPa | 0 mm | - | 0 W/m² | - |
| 1777610050 | 17.22° C | 49% | 1014.6 hPa | 0 mm | - | 0 W/m² | - |
* Rain latest hour (hover to see other rain measurements)
** Current wind speed in m/s (hover to see current wind gust speed)